TimeCDT,TemperatureF,Dew PointF,Humidity,Sea Level PressureIn,VisibilityMPH,Wind Direction,Wind SpeedMPH,Gust SpeedMPH,PrecipitationIn,Events,Conditions,WindDirDegrees,DateUTC
12:53 AM,60.1,51.1,72,29.57,10.0,South,21.9,29.9,N/A,,Partly Cloudy,190,2013-04-14 05:53:00
1:53 AM,57.9,52.0,81,29.55,10.0,South,21.9,27.6,N/A,,Partly Cloudy,190,2013-04-14 06:53:00
2:53 AM,57.0,52.0,83,29.54,10.0,South,20.7,-,N/A,,Partly Cloudy,180,2013-04-14 07:53:00
3:53 AM,55.9,52.0,87,29.51,10.0,South,18.4,29.9,N/A,,Scattered Clouds,190,2013-04-14 08:53:00
4:53 AM,55.9,51.1,84,29.49,10.0,South,21.9,31.1,N/A,,Partly Cloudy,190,2013-04-14 09:53:00
5:53 AM,55.0,51.1,86,29.48,10.0,SSW,20.7,-,N/A,,Partly Cloudy,210,2013-04-14 10:53:00
6:53 AM,53.1,50.0,89,29.50,9.0,SW,15.0,-,N/A,,Partly Cloudy,230,2013-04-14 11:53:00
7:53 AM,52.0,50.0,93,29.53,6.0,SW,12.7,-,N/A,,Scattered Clouds,230,2013-04-14 12:53:00
8:53 AM,57.0,46.9,69,29.53,10.0,WSW,16.1,-,N/A,,Scattered Clouds,240,2013-04-14 13:53:00
9:53 AM,64.9,44.1,47,29.53,10.0,WSW,16.1,-,N/A,,Mostly Cloudy,250,2013-04-14 14:53:00
10:53 AM,72.0,37.0,28,29.52,10.0,WSW,19.6,24.2,N/A,,Mostly Cloudy,250,2013-04-14 15:53:00
11:53 AM,80.1,25.0,13,29.50,10.0,West,23.0,33.4,N/A,,Mostly Cloudy,260,2013-04-14 16:53:00
12:53 PM,82.9,23.0,11,29.48,10.0,West,25.3,35.7,N/A,,Scattered Clouds,280,2013-04-14 17:53:00
1:53 PM,84.9,21.9,10,29.46,10.0,WSW,19.6,28.8,N/A,,Partly Cloudy,250,2013-04-14 18:53:00
2:53 PM,87.8,21.2,9,29.59,10.0,WSW,16.1,28.8,N/A,,Scattered Clouds,250,2013-04-14 19:53:00
3:53 PM,87.1,19.9,8,29.43,10.0,WSW,15.0,28.8,N/A,,Partly Cloudy,240,2013-04-14 20:53:00
4:53 PM,88.0,19.0,8,29.40,10.0,WSW,21.9,29.9,N/A,,Partly Cloudy,250,2013-04-14 21:53:00
5:53 PM,87.1,18.0,8,29.40,10.0,WSW,24.2,31.1,N/A,,Clear,240,2013-04-14 22:53:00
6:53 PM,86.0,18.0,8,29.42,10.0,SW,19.6,29.9,N/A,,Clear,230,2013-04-14 23:53:00
7:53 PM,82.0,18.0,9,29.44,10.0,WSW,12.7,-,N/A,,Clear,240,2013-04-15 00:53:00
8:53 PM,77.0,19.9,12,29.46,10.0,SSW,12.7,-,N/A,,Clear,210,2013-04-15 01:53:00
9:53 PM,77.0,21.0,12,29.46,8.0,SW,18.4,-,N/A,,Clear,220,2013-04-15 02:53:00
10:53 PM,73.0,21.0,14,29.47,8.0,SSW,15.0,-,N/A,,Clear,210,2013-04-15 03:53:00
11:53 PM,72.0,21.9,15,29.47,10.0,SW,16.1,-,N/A,,Clear,220,2013-04-15 04:53:00